NOAA 19

Last updated on Sat Jul 05 2025 00:02:21 GMT+0000 (Coordinated Universal Time)

1 33591U 09005A 25185.68878756 .00000146 00000+0 10162-3 0 9994 2 33591 98.9963 250.5331 0012693 294.5524 65.4325 14.13385077845650
UTC large
Height (km)
Speed (km/s)
/
Latitude / Longitude
Inclination (degrees)
Orbital Period (minutes)
Azimuth
Elevation
Range (km)
Doppler Factor

Next 0 passes for location: London (51.5072 / 0.1276)

Sorry there are no passes over London.